GW5240 Weather Reports


Display with metric or nautical units.
time (UTC)temp
F
wind
direction
speed
MPH
gust
MPH
rain 1hr
in
rain 24hr
in
rain mn
in
humidity
%
barometer
mb
20260831030454 76 169 1.0 2.0 0.00 0.00 0.00 81 1009.0
20260831025953 76 120 3.0 3.0 0.00 0.00 0.00 80 1008.9
20260831025452 76 159 2.0 3.0 0.00 0.00 0.00 80 1008.8
20260831024948 77 169 0.0 2.0 0.00 0.00 0.00 80 1008.8
20260831024443 77 176 0.0 2.0 0.00 0.00 0.00 79 1009.0
20260831023942 77 97 5.0 5.0 0.00 0.00 0.00 79 1009.0
20260831023440 77 172 1.0 2.0 0.00 0.00 0.00 78 1009.2
20260831022936 77 150 4.0 5.0 0.00 0.00 0.00 78 1009.0
20260831022434 77 169 3.0 5.0 0.00 0.00 0.00 78 1008.9
20260831021930 78 161 0.0 0.0 0.00 0.00 0.00 77 1009.2
20260831021429 78 175 1.0 2.0 0.00 0.00 0.00 76 1009.0
20260831020925 78 184 2.0 3.0 0.00 0.00 0.00 76 1009.4
20260831020425 78 155 2.0 3.0 0.00 0.00 0.00 75 1009.4
20260831015920 78 184 2.0 2.0 0.00 0.00 0.00 75 1009.2
20260831015416 79 198 2.0 3.0 0.00 0.00 0.00 75 1009.0
20260831014911 79 172 0.0 2.0 0.00 0.00 0.00 74 1009.4
20260831014410 79 190 2.0 2.0 0.00 0.00 0.00 74 1009.3
20260831013907 79 151 4.0 7.0 0.00 0.00 0.00 73 1009.5
20260831013402 80 198 2.0 3.0 0.00 0.00 0.00 72 1009.3
20260831012856 80 175 1.0 2.0 0.00 0.00 0.00 71 1009.0
20260831012351 80 169 1.0 3.0 0.00 0.00 0.00 70 1009.2
20260831011851 80 180 0.0 2.0 0.00 0.00 0.00 69 1008.9
20260831011346 81 164 1.0 2.0 0.00 0.00 0.00 68 1008.8
20260831010842 81 209 2.0 3.0 0.00 0.00 0.00 67 1008.7
20260831010341 82 172 0.0 0.0 0.00 0.00 0.00 67 1008.8
20260831005838 82 105 4.0 7.0 0.00 0.00 0.00 66 1008.6
20260831005333 82 63 3.0 5.0 0.00 0.00 0.00 65 1008.4
20260831004827 83 91 2.0 2.0 0.00 0.00 0.00 65 1008.3
20260831004324 83 164 2.0 3.0 0.00 0.00 0.00 65 1008.5
20260831003820 83 183 2.0 2.0 0.00 0.00 0.00 67 1008.2
20260831003316 83 188 2.0 3.0 0.00 0.00 0.00 68 1008.4
20260831002815 83 161 0.0 2.0 0.00 0.00 0.00 69 1008.2
20260831002314 83 169 0.0 0.0 0.00 0.00 0.00 68 1008.0
20260831001810 84 174 2.0 2.0 0.00 0.00 0.00 68 1007.9
20260831001305 84 175 1.0 2.0 0.00 0.00 0.00 68 1007.7
20260831000803 84 169 0.0 0.0 0.00 0.00 0.00 67 1008.0
20260831000303 84 120 1.0 2.0 0.00 0.00 0.00 67 1008.1
20260830235801 85 188 2.0 3.0 0.00 0.00 0.00 66 1008.1
20260830235255 85 157 1.0 2.0 0.00 0.00 0.00 66 1008.0
20260830234751 85 160 2.0 3.0 0.00 0.00 0.00 66 1007.9
20260830234247 85 212 3.0 3.0 0.00 0.00 0.00 67 1008.0
20260830233742 85 169 2.0 2.0 0.00 0.00 0.00 67 1008.1
20260830233238 86 167 0.0 2.0 0.00 0.00 0.00 67 1008.0
20260830232733 86 190 2.0 3.0 0.00 0.00 0.00 66 1007.9
20260830232229 86 172 1.0 2.0 0.00 0.00 0.00 66 1007.9
20260830231725 86 172 2.0 2.0 0.00 0.00 0.00 67 1007.8
20260830231224 85 175 0.0 0.0 0.00 0.00 0.00 69 1008.0
20260830230719 85 181 2.0 2.0 0.00 0.00 0.00 70 1008.0
20260830230214 86 161 0.0 0.0 0.00 0.00 0.00 70 1008.3
20260830225709 86 174 1.0 2.0 0.00 0.00 0.00 69 1008.2
20260830225209 86 141 4.0 5.0 0.00 0.00 0.00 69 1007.9
20260830224708 86 82 2.0 5.0 0.00 0.00 0.00 69 1007.9
20260830224204 86 151 2.0 5.0 0.00 0.00 0.00 69 1007.8
20260830223701 86 167 1.0 2.0 0.00 0.00 0.00 69 1007.9
20260830223155 85 226 2.0 3.0 0.00 0.00 0.00 69 1008.0
20260830222650 86 166 2.0 3.0 0.00 0.00 0.00 69 1007.9
20260830222145 86 173 0.0 0.0 0.00 0.00 0.00 68 1007.8
20260830221641 87 185 2.0 3.0 0.00 0.00 0.00 67 1007.7
20260830221137 87 183 2.0 2.0 0.00 0.00 0.00 67 1008.2
20260830220632 87 37 2.0 3.0 0.00 0.00 0.00 67 1008.0
20260830220131 87 137 1.0 2.0 0.00 0.00 0.00 67 1007.9
20260830215631 86 162 1.0 2.0 0.00 0.00 0.00 68 1008.1
20260830215125 86 98 1.0 2.0 0.00 0.00 0.00 69 1008.1
20260830214620 86 168 1.0 3.0 0.00 0.00 0.00 68 1008.1
20260830214115 86 165 0.0 0.0 0.00 0.00 0.00 67 1008.1
20260830213614 87 167 6.0 7.0 0.00 0.00 0.00 67 1007.9
20260830213110 86 124 0.0 2.0 0.00 0.00 0.00 67 1008.1
20260830212606 86 78 2.0 5.0 0.00 0.00 0.00 68 1008.2
20260830212106 86 104 0.0 0.0 0.00 0.00 0.00 68 1008.2
20260830211601 86 87 2.0 2.0 0.00 0.00 0.00 68 1008.4
20260830211055 86 182 1.0 2.0 0.00 0.00 0.00 67 1008.5
20260830210550 87 175 0.0 0.0 0.00 0.00 0.00 66 1008.5
20260830210044 86 166 2.0 3.0 0.00 0.00 0.00 68 1008.6
20260830205542 86 175 1.0 2.0 0.00 0.00 0.00 67 1008.4
20260830205038 87 182 2.0 3.0 0.00 0.00 0.00 65 1008.5
20260830204537 87 166 0.0 0.0 0.00 0.00 0.00 65 1008.5
20260830204036 87 181 2.0 3.0 0.00 0.00 0.00 65 1008.6
20260830203532 85 167 2.0 2.0 0.00 0.00 0.00 69 1008.6
20260830203027 85 182 3.0 5.0 0.00 0.00 0.00 67 1008.9
20260830202527 86 193 2.0 3.0 0.00 0.00 0.00 67 1008.6
20260830202023 87 153 2.0 5.0 0.00 0.00 0.00 65 1008.9
20260830201522 86 179 1.0 2.0 0.00 0.00 0.00 66 1008.9
20260830201017 86 256 2.0 3.0 0.00 0.00 0.00 66 1008.7
20260830200512 86 106 2.0 2.0 0.00 0.00 0.00 65 1008.8
20260830200011 88 327 6.0 9.0 0.00 0.00 0.00 62 1008.7
20260830195507 89 182 1.0 2.0 0.00 0.00 0.00 61 1008.6
20260830195005 87 188 1.0 2.0 0.00 0.00 0.00 65 1008.6
20260830194504 87 181 2.0 3.0 0.00 0.00 0.00 64 1008.8
20260830194004 88 213 2.0 5.0 0.00 0.00 0.00 63 1008.7
20260830193503 87 89 2.0 2.0 0.00 0.00 0.00 65 1008.8
20260830192959 87 174 3.0 3.0 0.00 0.00 0.00 63 1008.8
20260830192455 87 55 4.0 7.0 0.00 0.00 0.00 64 1008.8
20260830191950 86 160 1.0 2.0 0.00 0.00 0.00 65 1008.9
20260830191449 86 159 1.0 2.0 0.00 0.00 0.00 66 1008.7
20260830190945 86 192 6.0 7.0 0.00 0.00 0.00 65 1009.0
20260830190440 86 98 3.0 7.0 0.00 0.00 0.00 67 1008.9
20260830185939 86 187 3.0 7.0 0.00 0.00 0.00 65 1009.4
20260830185434 85 330 4.0 9.0 0.00 0.00 0.00 68 1009.0
20260830184930 83 63 2.0 3.0 0.00 0.00 0.00 70 1008.8
20260830184429 82 334 3.0 3.0 0.00 0.00 0.00 71 1009.5
20260830183924 82 164 0.0 2.0 0.00 0.00 0.00 72 1009.7
20260830183423 83 79 4.0 7.0 0.00 0.00 0.00 71 1009.8
20260830182919 83 178 2.0 3.0 0.00 0.00 0.00 70 1009.8
20260830182415 82 161 1.0 2.0 0.00 0.00 0.00 73 1009.5
20260830181911 82 170 2.0 3.0 0.00 0.00 0.00 71 1009.7
20260830181406 82 190 2.0 2.0 0.00 0.00 0.00 72 1009.7
20260830180901 82 184 0.0 2.0 0.00 0.00 0.00 72 1009.8
20260830180400 81 104 4.0 5.0 0.00 0.00 0.00 73 1009.9
20260830175859 81 192 2.0 3.0 0.00 0.00 0.00 73 1009.8
20260830175359 81 160 2.0 2.0 0.00 0.00 0.00 74 1009.6
20260830174854 80 52 3.0 5.0 0.00 0.00 0.00 74 1009.9
20260830174350 80 179 2.0 2.0 0.00 0.00 0.00 76 1010.0
20260830173845 80 158 2.0 3.0 0.00 0.00 0.00 76 1010.2
20260830173340 79 143 2.0 2.0 0.00 0.00 0.00 76 1010.3
20260830172836 79 166 1.0 2.0 0.00 0.00 0.00 78 1010.4
20260830172332 78 164 0.0 0.0 0.00 0.00 0.00 78 1010.4
20260830171828 78 178 0.0 0.0 0.00 0.00 0.00 77 1010.3
20260830171324 79 128 1.0 2.0 0.00 0.00 0.00 77 1010.3
20260830170818 79 169 2.0 3.0 0.00 0.00 0.00 76 1010.2
20260830170318 79 76 2.0 3.0 0.00 0.00 0.00 76 1010.2
20260830165816 79 185 1.0 2.0 0.00 0.00 0.00 76 1010.2
20260830165312 79 162 0.0 2.0 0.00 0.00 0.00 77 1010.2
20260830164809 79 134 1.0 3.0 0.00 0.00 0.00 76 1010.3
20260830164259 78 86 4.0 5.0 0.00 0.00 0.00 77 1010.2
20260830163755 78 97 1.0 2.0 0.00 0.00 0.00 77 1010.2
20260830163251 78 190 2.0 3.0 0.00 0.00 0.00 77 1010.1
20260830162745 78 92 2.0 3.0 0.00 0.00 0.00 77 1009.9
20260830162242 78 140 0.0 2.0 0.00 0.00 0.00 78 1009.8
20260830161737 78 172 2.0 3.0 0.00 0.00 0.00 78 1009.7
20260830161236 78 113 0.0 2.0 0.00 0.00 0.00 78 1009.7
20260830160732 77 116 3.0 5.0 0.00 0.00 0.00 79 1009.7
20260830160231 77 92 2.0 3.0 0.00 0.00 0.00 78 1009.4
20260830155728 78 44 6.0 9.0 0.00 0.00 0.00 78 1009.3
20260830155223 78 170 0.0 0.0 0.00 0.00 0.00 78 1009.3
20260830154718 77 158 0.0 2.0 0.00 0.00 0.00 78 1009.7
20260830154214 77 143 1.0 2.0 0.00 0.00 0.00 79 1009.7
20260830153711 77 73 3.0 5.0 0.00 0.00 0.00 79 1009.6
20260830153206 77 219 2.0 3.0 0.00 0.00 0.00 79 1009.6
20260830152705 77 121 1.0 2.0 0.00 0.00 0.00 79 1009.6
20260830152204 78 163 1.0 3.0 0.00 0.00 0.00 77 1009.6
20260830151659 78 145 1.0 2.0 0.00 0.00 0.00 77 1009.7
20260830151159 79 82 2.0 3.0 0.00 0.00 0.00 76 1009.4
20260830150654 78 165 0.0 0.0 0.00 0.00 0.00 79 1009.6
20260830150148 77 198 1.0 2.0 0.00 0.00 0.00 79 1009.6
20260830145648 76 74 3.0 3.0 0.00 0.00 0.00 81 1009.5
20260830145143 75 183 2.0 5.0 0.00 0.00 0.00 82 1009.3
20260830144638 75 181 0.0 0.0 0.00 0.00 0.00 83 1009.4
20260830144134 75 163 2.0 3.0 0.00 0.00 0.00 82 1009.2
20260830143630 74 147 2.0 3.0 0.00 0.00 0.00 83 1009.3
20260830143127 74 74 0.0 2.0 0.00 0.00 0.00 85 1009.5
20260830142623 73 179 0.0 0.0 0.00 0.00 0.00 85 1009.4
20260830142118 73 162 2.0 2.0 0.00 0.00 0.00 86 1009.4
20260830141614 72 173 0.0 2.0 0.00 0.00 0.00 86 1009.5
20260830141109 72 97 2.0 2.0 0.00 0.00 0.00 86 1009.8
20260830140604 72 141 0.0 0.0 0.00 0.00 0.00 87 1009.9
20260830140058 72 359 6.0 9.0 0.00 0.00 0.00 86 1010.2
20260830135553 72 134 1.0 2.0 0.00 0.00 0.00 86 1010.2
20260830135048 72 171 2.0 3.0 0.00 0.00 0.00 87 1010.1
20260830134544 71 358 1.0 3.0 0.00 0.00 0.00 88 1010.1
20260830134044 71 174 0.0 2.0 0.00 0.00 0.00 88 1009.8
20260830133545 71 171 1.0 2.0 0.00 0.00 0.00 89 1009.8
20260830133040 71 169 0.0 2.0 0.00 0.00 0.00 89 1009.7
20260830132536 70 161 0.0 0.0 0.00 0.00 0.00 90 1009.7
20260830132031 70 157 0.0 0.0 0.00 0.00 0.00 90 1009.9
20260830131529 70 170 2.0 2.0 0.00 0.00 0.00 90 1009.7
20260830131025 70 169 0.0 2.0 0.00 0.00 0.00 90 1009.6
20260830130520 70 130 0.0 0.0 0.00 0.00 0.00 91 1009.7
20260830130016 70 168 0.0 0.0 0.00 0.00 0.00 91 1009.7
20260830125510 70 167 1.0 2.0 0.00 0.00 0.00 91 1009.6
20260830125009 70 155 0.0 2.0 0.00 0.00 0.00 91 1009.7
20260830124508 69 143 0.0 0.0 0.00 0.00 0.00 91 1009.6
20260830124004 69 162 0.0 2.0 0.00 0.00 0.00 92 1009.7
20260830123501 69 167 0.0 0.0 0.00 0.00 0.00 92 1009.6
20260830123000 69 148 0.0 0.0 0.00 0.00 0.00 92 1009.6
20260830122458 69 170 0.0 2.0 0.00 0.00 0.00 93 1009.7
20260830121953 69 155 0.0 0.0 0.00 0.00 0.00 93 1009.8
20260830121449 69 141 0.0 0.0 0.00 0.00 0.00 93 1009.6
20260830120949 68 144 0.0 2.0 0.00 0.00 0.00 94 1009.6
20260830120444 68 158 0.0 0.0 0.00 0.00 0.00 94 1009.6
20260830115941 68 163 0.0 0.0 0.00 0.00 0.00 94 1009.4
20260830115437 68 161 0.0 0.0 0.00 0.00 0.00 94 1009.3
20260830114932 68 164 0.0 0.0 0.00 0.00 0.00 94 1009.4
20260830114429 68 162 0.0 0.0 0.00 0.00 0.00 93 1009.3
20260830113928 68 165 0.0 0.0 0.00 0.00 0.00 93 1009.0
20260830113423 68 162 0.0 0.0 0.00 0.00 0.00 93 1009.0
20260830112919 68 160 0.0 0.0 0.00 0.00 0.00 93 1009.0
20260830112415 68 163 0.0 0.0 0.00 0.00 0.00 93 1009.0
20260830111911 68 196 0.0 0.0 0.00 0.00 0.00 93 1009.4
20260830111406 68 157 0.0 0.0 0.00 0.00 0.00 93 1009.3
20260830110901 68 154 0.0 0.0 0.00 0.00 0.00 93 1009.5
20260830110357 68 132 0.0 2.0 0.00 0.00 0.00 93 1009.4
20260830105855 68 151 0.0 0.0 0.00 0.00 0.00 94 1009.5
20260830105353 68 167 0.0 0.0 0.00 0.00 0.00 93 1009.6
20260830104848 68 159 0.0 0.0 0.00 0.00 0.00 93 1009.7
20260830104345 68 159 0.0 0.0 0.00 0.00 0.00 93 1009.6
20260830103844 68 165 0.0 0.0 0.00 0.00 0.00 93 1009.7
20260830103340 68 160 0.0 0.0 0.00 0.00 0.00 93 1009.6
20260830102838 68 159 0.0 0.0 0.00 0.00 0.00 93 1009.5
20260830102334 68 161 0.0 0.0 0.00 0.00 0.00 93 1009.8
20260830101830 68 167 0.0 0.0 0.00 0.00 0.00 92 1009.9
20260830101325 68 169 0.0 0.0 0.00 0.00 0.00 92 1009.9
20260830100824 68 167 0.0 0.0 0.00 0.00 0.00 92 1009.7
20260830100319 68 169 0.0 0.0 0.00 0.00 0.00 92 1009.5
20260830095817 68 166 0.0 0.0 0.00 0.00 0.00 91 1009.5
20260830095314 69 171 0.0 0.0 0.00 0.00 0.00 91 1009.4
20260830094809 69 162 0.0 0.0 0.00 0.00 0.00 91 1009.2
20260830094306 69 166 0.0 0.0 0.00 0.00 0.00 91 1009.3
20260830093801 69 166 0.0 0.0 0.00 0.00 0.00 92 1009.0
20260830093256 69 164 0.0 0.0 0.00 0.00 0.00 92 1009.2
20260830092756 69 157 0.0 0.0 0.00 0.00 0.00 92 1009.3
20260830092253 68 162 1.0 2.0 0.00 0.00 0.00 92 1009.5
20260830091749 68 159 0.0 0.0 0.00 0.00 0.00 92 1009.4
20260830091248 68 142 0.0 0.0 0.00 0.00 0.00 91 1009.5
20260830090748 69 161 0.0 0.0 0.00 0.00 0.00 91 1009.5
20260830090243 69 159 0.0 0.0 0.00 0.00 0.00 92 1009.5
20260830085742 68 172 1.0 2.0 0.00 0.00 0.00 92 1009.6
20260830085238 68 162 0.0 0.0 0.00 0.00 0.00 92 1009.4
20260830084734 68 158 0.0 0.0 0.00 0.00 0.00 92 1009.3
20260830084229 68 161 0.0 0.0 0.00 0.00 0.00 91 1009.6
20260830083724 68 163 0.0 0.0 0.00 0.00 0.00 91 1009.6
20260830083220 69 163 0.0 0.0 0.00 0.00 0.00 91 1009.6
20260830082719 69 163 0.0 0.0 0.00 0.00 0.00 91 1009.6
20260830082215 69 160 0.0 0.0 0.00 0.00 0.00 90 1009.7
20260830081710 69 159 0.0 0.0 0.00 0.00 0.00 90 1009.5
20260830081210 69 167 0.0 0.0 0.00 0.00 0.00 90 1009.5
20260830080709 69 140 0.0 0.0 0.00 0.00 0.00 90 1009.3
20260830080206 69 154 0.0 0.0 0.00 0.00 0.00 90 1009.3
20260830075705 69 145 1.0 2.0 0.00 0.00 0.00 90 1009.6
20260830075201 69 162 0.0 0.0 0.00 0.00 0.00 89 1009.5
20260830074656 69 162 0.0 0.0 0.00 0.00 0.00 89 1009.6
20260830074152 69 159 0.0 0.0 0.00 0.00 0.00 89 1009.8
20260830073648 70 148 0.0 0.0 0.00 0.00 0.00 89 1010.0
20260830073143 69 167 0.0 0.0 0.00 0.00 0.00 90 1010.0
20260830072638 69 158 0.0 2.0 0.00 0.00 0.00 90 1009.8
20260830072138 69 160 0.0 0.0 0.00 0.00 0.00 90 1009.7
20260830071634 69 162 0.0 0.0 0.00 0.00 0.00 90 1009.9
20260830071131 69 159 0.0 0.0 0.00 0.00 0.00 90 1009.9
20260830070627 69 167 0.0 0.0 0.00 0.00 0.00 90 1010.0
20260830070122 69 167 0.0 0.0 0.00 0.00 0.00 90 1010.1
20260830065620 69 163 0.0 0.0 0.00 0.00 0.00 89 1009.9
20260830065120 69 163 0.0 0.0 0.00 0.00 0.00 89 1009.9
20260830064619 70 160 0.0 0.0 0.00 0.00 0.00 89 1009.8
20260830064115 70 160 0.0 0.0 0.00 0.00 0.00 89 1009.9
20260830063614 70 159 0.0 0.0 0.00 0.00 0.00 88 1009.9
20260830063114 70 163 0.0 0.0 0.00 0.00 0.00 88 1010.0
20260830062608 70 159 0.0 0.0 0.00 0.00 0.00 88 1010.1
20260830062103 70 163 0.0 0.0 0.00 0.00 0.00 88 1010.0
20260830061557 70 160 0.0 0.0 0.00 0.00 0.00 88 1010.2
20260830061054 70 158 0.0 0.0 0.00 0.00 0.00 88 1010.4
20260830060549 70 163 0.0 0.0 0.00 0.00 0.00 88 1010.4
20260830060046 70 164 0.0 0.0 0.00 0.00 0.00 88 1010.4
20260830055541 70 164 0.0 0.0 0.00 0.00 0.00 87 1010.4
20260830055037 71 165 0.0 0.0 0.00 0.00 0.00 87 1010.4
20260830054532 71 166 0.0 0.0 0.00 0.00 0.00 87 1010.4
20260830054028 71 165 0.0 0.0 0.00 0.00 0.00 87 1010.5
20260830053523 71 159 0.0 0.0 0.00 0.00 0.00 87 1010.5
20260830053022 71 166 0.0 0.0 0.00 0.00 0.00 87 1010.3
20260830052518 71 161 0.0 0.0 0.00 0.00 0.00 87 1010.4
20260830052018 71 159 0.0 0.0 0.00 0.00 0.00 87 1010.3
20260830051513 71 159 0.0 0.0 0.00 0.00 0.00 87 1010.4
20260830051008 71 165 0.0 0.0 0.00 0.00 0.00 87 1010.4
20260830050503 71 157 0.0 0.0 0.00 0.00 0.00 87 1010.4
20260830050001 71 157 0.0 0.0 0.00 0.36 0.36 87 1010.8
20260830045456 71 154 0.0 0.0 0.00 0.36 0.36 87 1010.4
20260830044955 71 159 0.0 0.0 0.00 0.36 0.36 87 1010.6
20260830044451 71 158 0.0 0.0 0.00 0.36 0.36 87 1010.7
20260830043946 71 162 0.0 0.0 0.00 0.36 0.36 87 1010.8
20260830043440 71 158 0.0 0.0 0.00 0.36 0.36 87 1010.7
20260830042938 71 159 0.0 0.0 0.00 0.36 0.36 87 1010.6
20260830042433 71 161 0.0 0.0 0.00 0.36 0.36 86 1010.8
20260830041932 72 160 0.0 0.0 0.00 0.36 0.36 86 1010.9
20260830041431 72 156 0.0 0.0 0.00 0.36 0.36 86 1010.8
20260830040926 72 154 0.0 0.0 0.00 0.36 0.36 86 1011.0
20260830040423 72 164 0.0 0.0 0.00 0.36 0.36 86 1010.9
20260830035921 72 160 0.0 0.0 0.00 0.36 0.36 85 1010.8
20260830035420 72 157 0.0 0.0 0.00 0.36 0.36 85 1010.9
20260830034916 72 164 0.0 2.0 0.00 0.36 0.36 85 1010.7
20260830034411 73 164 0.0 0.0 0.00 0.36 0.36 84 1010.8
20260830033906 73 168 0.0 2.0 0.00 0.36 0.36 84 1011.0
20260830033401 73 198 0.0 0.0 0.00 0.36 0.36 84 1010.8
20260830032856 73 165 0.0 0.0 0.00 0.36 0.36 83 1011.0
20260830032355 73 157 0.0 0.0 0.00 0.36 0.36 83 1010.8
20260830031851 73 134 0.0 0.0 0.00 0.36 0.36 84 1011.1
20260830031346 73 140 0.0 0.0 0.00 0.36 0.36 83 1011.1
20260830030841 73 157 0.0 0.0 0.00 0.36 0.36 83 1011.0